Regional Weather Roundup
Issued by NWS

Home | Current Version | Previous Version | Text Only | Print | Product List | Glossary Off
Versions: 1 2 3 4 5 6 7 8 9 10 11 12 13 14 15 16 17 18 19 20 21 22 23 24 25 26 27 28 29 30 31 32 33 34 35 36 37 38 39 40 41 42 43 44 45 46 47 48 49 50

000
ASUS43 KMPX 280610
RWRMN
WEATHER ROUNDUP FOR MINNESOTA
NATIONAL WEATHER SERVICE TWIN CITIES/CHANHASSEN MN
100 AM CDT THU JUL 28 2016


NOTE: "FAIR" INDICATES FEW OR NO CLOUDS BELOW 12,000 FEET WITH NO
SIGNIFICANT WEATHER AND/OR OBSTRUCTIONS TO VISIBILITY. N/A MEANS
CURRENT SKY AND/OR WEATHER CONDITIONS ARE NOT AVAILABLE.

MNZ060>063-068>070-280700-
   Twin Cities Metro

CITY           SKY/WX    TMP DP  RH WIND       PRES   REMARKS
TWIN CITIES    CLOUDY    68  64  87 N9        29.99R
6HR MIN TEMP:  68; 6HR MAX TEMP:  75;

ST PAUL        CLOUDY    68  65  90 N7        29.99R
CRYSTAL        CLOUDY    66  62  87 N9G16     29.99R
BLAINE         CLOUDY    66  66 100 N9        30.00S
LAKEVILLE      CLOUDY    66  66 100 N6        29.99R
EDEN PRAIRIE   CLOUDY    68  63  84 N9        29.99R
6HR MIN TEMP:  68; 6HR MAX TEMP:  76;

LAKEVILLE      CLOUDY    66  66 100 N6        29.99R
SOUTH ST PAUL  CLOUDY    68  66  92 N6        29.98S
LAKE ELMO      CLOUDY    68  64  88 N6        29.99S
$$
MNZ001>005-007-008-013>017-022>024-027-028-280700-
   Northwest Minnesota

CITY           SKY/WX    TMP DP  RH WIND       PRES   REMARKS
BEMIDJI        CLOUDY    61  59  94 NE6       30.07S
HALLOCK        CLEAR     57  55  94 N6        30.12S
ROSEAU         CLEAR     57  52  82 NE3       30.13S
WARROAD        CLEAR     63  57  82 N9        30.13S
THIEF RVR FALL PTCLDY    64  57  78 NE9       30.10S
CROOKSTON      CLOUDY    64  61  88 NE3       30.09S
FOSSTON        CLOUDY    63  57  82 N6        30.09R
DETROIT LAKES  CLOUDY    64  61  88 CALM      30.08R
MOORHEAD       CLOUDY    63  59  88 N5        30.07R
PARK RAPIDS    CLOUDY    65  61  87 NE3       30.06F
MAHNOMEN       CLOUDY    64  62  94 NE6       30.08R
$$
MNZ006-009>011-018-025>026-280700-
   North Central Minnesota

CITY           SKY/WX    TMP DP  RH WIND       PRES   REMARKS
BAUDETTE       CLEAR     59  54  83 NE8       30.12R
FLAG ISLAND    CLEAR     63  54  72 NE7       30.13R
INTL FALLS     MOCLDY    62  54  74 N3        30.11R
6HR MIN TEMP:  62; 6HR MAX TEMP:  74;

WASKISH        CLOUDY    63  57  82 NE7       30.10R
BIG FORK       PTCLDY    61  55  82 CALM      30.09S
LONGVILLE      CLOUDY    63  63 100 CALM      30.06S FOG
GRAND RAPIDS   PTCLDY    57  57 100 CALM      30.09S FOG
CRANE LAKE     CLEAR     52  52 100 CALM      30.11R
ORR            CLEAR     55  54  94 CALM      30.08R
COOK           CLEAR     55  55 100 CALM      30.09S
WALKER         FAIR      59  58  98 CALM      30.06S
$$
MNZ012-019>021-037-280700-
   Northeast Minnesota

CITY           SKY/WX    TMP DP  RH WIND       PRES   REMARKS
DULUTH         MOCLDY    57  54  89 N6        30.06F
6HR MIN TEMP:  57; 6HR MAX TEMP:  65;

ELY            PTCLDY    54  54 100 CALM      30.09R FOG
HIBBING        FOG       53  53 100 CALM      30.07F VSB 1/4
EVELETH        MOCLDY    58  57  98 CALM      30.09S
DULUTH HARBOR  CLEAR     63  57  82 NE8       30.06R
TWO HARBORS    PTCLDY    63  57  82 N3        30.04S
SILVER BAY     CLOUDY    61  55  82 N5        30.05R
GRAND MARAIS     N/A     56  53  90 N5        30.06R
$$
MNZ029>031-032-039>041-046>048-054>057-064-280700-
   West Central Minnesota

CITY           SKY/WX    TMP DP  RH WIND       PRES   REMARKS
FERGUS FALLS   PTCLDY    64  63  94 E3        30.07R
WHEATON        CLOUDY    64  61  88 NW6       30.07S
MORRIS         CLOUDY    61  59  94 NW5       30.04R
ALEXANDRIA     CLOUDY    65  62  90 NE6       30.06R
ELBOW LAKE     FAIR      64  62  94 CALM      30.06R
WADENA         CLOUDY    61  61 100 N5        30.06R
GLENWOOD       CLOUDY    64  63  94 NE5       30.06R
APPLETON       CLOUDY    64  59  82 CALM      30.04R
BENSON         CLOUDY    61  57  88 NE3       30.04R
ORTONVILLE     MOCLDY    66  57  72 NW9       30.05R
MADISON        CLOUDY    63  59  88 NW7       30.04F
WILLMAR        MOCLDY    66 N/A N/A NE5       30.04S
$$
MNZ033>034-036-042>043-049>051-058-059-280700-
   Central Minnesota

CITY           SKY/WX    TMP DP  RH WIND       PRES   REMARKS
ST CLOUD       CLOUDY    62  61  96 NE5       30.03R
6HR MIN TEMP:  62; 6HR MAX TEMP:  74;

SAUK CENTRE    MOCLDY    64  62  92 CALM      30.05R
PAYNESVILLE    CLEAR     64  64 100 CALM      30.04R
AITKIN         CLOUDY    61  55  82 CALM      30.05R VSB 1/2
PINE RIVER     PTCLDY    63  63 100 CALM      30.09F
BRAINERD       PTCLDY    62  60  93 NE3       30.05S
STAPLES        CLOUDY    63  61  94 NE5       30.05S
LONG PRAIRIE   CLOUDY    63  61  94 N3        30.05S
LITTLE FALLS   PTCLDY    61  59  94 CALM      30.04S
LITCHFIELD     CLEAR     66  64  94 NE5       30.03R
BUFFALO        CLOUDY    64  60  87 N8        30.03R
MAPLE LAKE     CLOUDY    65  63  91 N6        30.03S
HUTCHINSON     CLEAR     66  64  93 N6        30.02S
$$
MNZ037-044-045-052-053-280700-
   East Central Minnesota

CITY           SKY/WX    TMP DP  RH WIND       PRES   REMARKS
PRINCETON      CLOUDY    64  61  88 N6        30.03R
MORA           MOCLDY    57  55  94 CALM      30.05S
CAMBRIDGE      CLOUDY    64  57  77 N5        30.01S
RUSH CITY      RAIN      62  60  94 N3        30.03S
MOOSE LAKE     CLEAR     55  54  94 NE3       30.03S
HINCKLEY       MOCLDY    59  59 100 CALM      30.03S
CLOQUET        CLEAR     57  54  88 N3        30.06S
MCGREGOR       CLEAR     61  59  94 CALM      30.06S
$$
MNZ071>073-080-081-089-090-097-098-280700-
   Southwest Minnesota

CITY           SKY/WX    TMP DP  RH WIND       PRES   REMARKS
MONTEVIDEO     MOCLDY    63  57  82 N6        30.05S
GRANITE FALLS  CLOUDY    65  61  85 NW6       30.05R
CANBY          CLOUDY    64  59  86 NW7       30.06S
MARSHALL       MOCLDY    62  60  93 NW5       30.05R
REDWOOD FALLS  CLOUDY    67  63  87 N5        30.01S
OLIVIA         MOCLDY    64  61  88 N3        30.01S
PIPESTONE      CLOUDY    64  59  82 N5        30.06S
WINDOM         MOCLDY    64  63  94 NW8       30.03S
WORTHINGTON    PTCLDY    66  61  84 N9        30.04S
JACKSON        CLOUDY    66  63  88 NW6       30.03R
TRACY          CLOUDY    65  62  90 NW7       30.04S
SLAYTON        PTCLDY    64  60  87 N9        30.06S
$$
MNZ065>067-074>077-082>085-091>093-280700-
   South Central Minnesota

CITY           SKY/WX    TMP DP  RH WIND       PRES   REMARKS
MANKATO        CLEAR     64  59  82 N9        29.99S
NEW ULM        CLOUDY    66  64  94 CALM      30.01R
ST JAMES       CLOUDY    61  59  94 N3        30.02S
FAIRMONT       CLEAR     66  64  94 N6        29.99F
GLENCOE        MOCLDY    65  65  99 N6        30.00S
FARIBAULT      CLOUDY    66  64  94 N5        29.98F
OWATONNA       PTCLDY    66  63  88 N6        29.98S
WASECA         CLEAR     63  61  94 NW3       30.00S
ALBERT LEA     CLEAR     66  66 100 N5        29.98S
$$
MNZ078>079-086>088-094>096-280700-
   Southeast Minnesota

CITY           SKY/WX    TMP DP  RH WIND       PRES   REMARKS
ROCHESTER      MOCLDY    66  66 100 NW6       29.97S
6HR MIN TEMP:  66; 6HR MAX TEMP:  73; 6HR PCP:  0.01;

RED WING       CLOUDY    70  66  88 N3        29.95S
STANTON        CLOUDY    68  64  88 VRB5      29.97R
DODGE CENTER   CLOUDY    64  64 100 NW5       29.97F
WINONA         CLOUDY    70  66  88 CALM      29.93F
AUSTIN         PTCLDY    66  64  94 NW7       29.98R
PRESTON        CLOUDY    67  65  91 NW6       29.96S
$$
ABBREVIATIONS USED IN REMARKS
   TC - TEMPERATURES IN CELSIUS
  WCI - WIND CHILL INDEX
   HX - HEAT INDEX
  VSB - VISIBILITY
$$



USA.gov is the U.S. government's official web portal to all federal, state and local government web resources and services.